Wind_Speed
48 45 47 46 47 39 38 41 41 46 45 44 44 42 40 39 38 38 39 39 39 38 37 37 37 36 38 37 37 35 35 34 34 37 36 36 39 37 31 32 30 29 29 29 28 28 30 25 27 27 31 31 32 34
52 47 45 39 43 43 36 36 40 44 45 43 41 40 40 38 36 36 37 37 37 37 37 39 39 38 37 34 33 35 34 34 37 37 38 38 36 31 32 32 29 31 28 30 29 29 31 27 31 32 33 33 34 37
51 46 45 40 42 43 41 36 36 43 43 42 40 40 39 37 36 34 35 35 36 39 39 38 36 35 35 34 33 34 35 37 39 40 41 36 32 32 31 30 29 30 30 31 33 29 32 30 34 35 36 37 39 42
51 49 46 44 44 43 44 41 37 38 39 40 40 40 39 39 37 35 36 37 37 38 37 35 34 34 33 33 35 37 38 40 40 39 35 33 31 29 30 30 27 32 30 32 33 34 32 33 36 37 39 41 43 46
53 50 48 47 46 43 42 43 43 40 39 37 38 37 36 35 35 35 35 35 35 35 34 35 34 34 34 36 37 38 39 39 37 34 32 31 31 32 29 27 28 30 32 33 35 36 35 37 39 41 43 45 48 51
52 46 45 44 46 47 45 43 42 42 42 40 36 34 32 33 32 31 33 35 35 35 35 35 34 35 36 36 34 37 34 34 34 32 32 31 30 32 28 27 30 30 34 35 37 38 38 41 43 46 48 50 53 56
51 45 42 40 39 41 45 44 42 40 38 36 34 33 32 32 33 33 32 32 34 34 34 34 35 34 33 33 31 33 33 35 33 32 31 31 31 31 28 30 33 31 35 36 38 39 42 44 46 49 52 56 59 63
41 38 35 35 34 34 35 37 40 42 40 38 37 36 34 34 33 33 34 34 33 33 34 31 30 30 31 32 32 32 34 33 32 32 31 31 30 31 31 34 34 36 37 39 41 42 44 46 50 54 58 62 64 67
32 30 32 33 34 32 32 34 35 35 37 37 36 35 34 34 33 34 34 33 31 30 30 27 28 28 31 31 32 33 33 32 33 32 31 32 31 33 34 37 36 38 40 42 43 45 48 52 55 60 63 66 69 71
29 29 31 33 34 33 31 31 33 35 34 36 36 36 36 34 34 31 31 30 27 29 29 29 27 27 29 30 31 32 32 34 34 32 32 31 33 35 36 38 39 41 43 45 47 49 53 57 61 63 66 68 68 67
30 31 33 36 34 30 31 31 32 35 37 36 33 31 29 28 27 27 28 29 30 31 30 29 29 30 31 31 32 33 33 34 34 31 33 33 36 35 39 40 42 45 47 48 52 56 59 62 65 67 67 67 67 67
31 33 34 33 31 30 31 31 31 31 30 28 28 29 30 27 26 29 30 34 33 30 30 29 30 31 32 32 33 34 34 35 35 33 36 36 36 39 40 42 44 47 51 54 58 61 63 65 66 68 68 70 71 71
33 34 33 33 33 33 33 32 31 33 32 31 31 30 29 30 33 35 33 31 30 28 29 30 31 32 32 33 34 34 34 34 35 37 38 38 39 41 42 46 50 53 56 59 62 63 65 67 68 71 72 73 74 74
36 34 33 32 33 32 32 34 32 31 30 32 31 31 33 34 35 29 27 28 31 33 32 31 32 32 32 33 33 33 34 36 38 38 40 40 43 46 49 53 55 57 61 64 65 67 69 71 72 73 75 76 78 78
33 33 34 35 34 34 34 33 34 34 32 32 33 34 34 32 30 29 29 30 30 31 32 31 32 33 33 33 34 35 36 39 39 40 42 45 48 51 54 57 60 61 64 66 68 70 71 72 73 75 76 78 77 77
34 34 34 32 32 32 32 33 34 34 34 34 34 32 31 31 30 30 30 30 29 29 31 32 32 31 32 34 34 36 38 39 41 43 46 49 52 55 59 61 64 65 66 67 69 70 72 75 78 79 77 74 72 69
31 31 31 31 30 31 33 35 36 35 35 34 32 30 29 30 30 30 29 29 30 31 30 31 31 32 34 35 37 37 39 42 44 47 50 54 57 59 60 62 63 65 67 69 71 74 77 78 79 76 72 66 62 57
32 31 31 32 34 35 36 35 35 34 31 29 29 29 29 29 29 29 29 29 29 30 30 31 33 34 35 37 39 39 42 45 47 50 52 54 56 58 61 64 67 69 71 73 75 78 78 76 72 67 64 59 56 53
35 35 35 34 34 35 35 32 30 28 28 28 29 29 28 28 28 29 29 30 31 31 32 33 35 37 38 39 41 43 45 47 49 50 52 55 58 61 63 66 68 70 73 74 76 74 71 68 63 60 58 55 52 49
33 33 33 32 30 30 30 29 29 30 30 29 30 30 29 30 29 30 31 31 32 34 35 36 38 39 40 41 42 45 47 48 49 51 53 56 60 63 66 69 72 74 76 74 70 67 64 61 57 56 53 51 50 45
33 33 33 32 31 32 32 32 32 32 32 31 31 31 31 31 31 32 33 35 36 36 36 37 38 41 42 42 43 44 46 47 50 54 58 62 65 68 71 74 78 79 77 71 66 61 60 58 55 51 49 46 44 41
34 34 35 35 35 35 34 33 32 31 32 31 32 32 33 34 33 34 35 36 37 37 38 39 39 39 41 42 43 45 47 50 54 58 62 66 69 73 75 76 75 72 67 62 60 58 55 53 52 49 46 42 40 37
39 38 37 37 35 34 32 32 32 31 31 32 33 33 33 34 35 36 35 35 36 38 38 38 39 41 43 45 47 49 52 56 59 63 68 71 73 74 72 70 69 67 61 56 54 53 52 49 47 46 43 40 36 33
35 34 34 34 33 33 31 32 32 32 33 33 33 32 32 33 34 33 32 35 37 38 38 40 42 43 44 47 51 54 56 61 66 68 70 72 73 69 68 66 64 58 52 51 49 48 49 47 41 39 38 36 32 29
34 34 34 33 32 32 32 32 32 32 31 31 30 30 31 32 32 32 32 37 39 40 41 43 44 46 49 53 56 59 63 67 70 72 69 71 68 66 64 62 57 48 49 48 46 43 41 37 30 32 35 32 28 25
33 32 31 31 30 30 30 30 29 29 29 29 29 30 31 32 33 33 32 35 38 41 44 46 48 51 55 59 63 66 67 69 71 71 68 64 60 61 60 55 48 42 44 45 44 41 35 29 26 31 33 30 25 23
31 29 28 29 28 28 28 28 29 28 29 30 31 31 32 32 32 34 38 39 41 44 45 48 50 55 59 63 66 67 67 65 63 60 56 55 55 52 48 46 45 42 41 42 41 37 31 26 26 29 30 26 23 23
28 28 28 28 27 27 27 28 28 29 30 30 31 31 32 33 34 37 39 43 45 48 50 54 60 63 65 67 64 61 59 59 58 56 54 50 45 41 41 43 43 42 41 40 38 33 28 25 25 26 25 23 22 22
28 27 27 27 28 29 29 29 29 29 29 30 31 33 33 35 37 41 43 46 50 52 56 61 63 64 62 58 59 61 60 57 54 50 45 40 35 34 37 42 42 42 40 38 35 30 26 23 22 22 21 21 21 21
29 28 28 29 29 28 28 28 28 29 31 32 34 35 37 39 42 45 47 50 54 59 59 58 58 55 53 59 60 58 55 49 44 41 37 33 32 34 36 38 41 39 36 34 31 27 25 22 20 19 19 20 21 20
29 27 27 27 27 26 26 28 29 31 33 35 38 41 43 44 45 49 53 55 54 50 50 50 51 55 57 54 49 45 41 37 34 33 30 31 32 34 36 38 38 36 32 30 29 26 22 20 19 18 19 19 19 19
25 25 25 25 26 27 28 30 31 33 36 39 43 47 50 53 54 51 48 48 48 50 51 51 50 46 43 39 36 35 35 35 33 32 33 34 35 35 35 36 35 32 30 28 26 24 21 19 17 17 17 17 18 17
24 22 22 22 24 28 32 33 36 37 40 42 41 42 42 44 43 44 45 45 45 43 40 37 34 32 31 31 32 33 35 35 36 36 36 35 34 33 34 34 30 29 28 26 23 21 20 18 17 16 16 16 15 13
Wind_Direction
187 196 190 190 193 193 196 201 201 199 199 200 199 200 201 203 206 211 216 224 228 230 231 234 236 239 243 243 242 243 242 251 252 249 257 269 279 280 277 277 279 281 281 283 286 288 292 302 297 294 293 297 301 302
187 188 192 192 198 199 198 200 203 199 197 198 198 199 199 200 205 216 226 229 231 231 232 234 238 243 242 243 243 241 251 252 249 253 264 276 277 273 274 277 277 277 277 283 282 289 293 296 294 294 295 300 302 301
188 191 194 197 200 203 203 202 201 199 200 201 202 206 209 214 219 221 225 230 232 233 236 240 241 240 238 236 237 239 244 246 252 261 270 270 271 275 273 272 275 272 279 282 284 288 291 297 293 294 296 298 298 299
192 196 195 196 197 200 203 204 202 200 201 202 206 209 212 217 222 226 229 234 237 238 239 237 237 233 234 231 235 242 245 252 258 270 266 267 271 270 270 272 272 275 277 277 285 286 291 290 291 293 295 299 300 303
188 192 191 195 196 201 201 203 205 203 205 207 209 210 214 219 224 229 234 238 236 234 236 230 230 228 228 231 236 243 252 257 263 262 266 268 270 267 268 271 272 273 278 283 287 289 290 291 295 295 298 299 302 305
185 188 192 196 200 202 203 203 204 207 210 211 212 216 222 228 232 235 235 235 235 231 230 232 228 231 236 239 247 252 255 260 259 265 267 267 267 267 270 270 268 272 279 284 288 289 292 293 294 296 300 302 304 305
187 189 190 196 199 202 206 209 211 212 213 216 219 222 226 230 231 232 232 228 227 230 229 229 228 231 238 241 247 253 255 257 261 265 266 267 266 268 269 269 273 275 281 285 287 289 290 292 295 297 299 302 303 305
184 188 193 196 198 197 200 205 209 212 214 217 219 223 226 228 225 223 222 223 226 227 230 232 235 239 242 247 249 249 256 260 262 264 265 266 267 267 268 270 278 282 285 286 288 291 294 296 297 299 301 302 304 304
179 186 192 199 199 198 199 202 205 208 212 215 218 219 218 219 221 222 225 228 229 231 234 233 236 237 241 246 251 256 257 259 263 264 263 265 267 270 272 276 282 284 287 290 292 294 296 298 299 300 302 303 304 305
190 192 194 200 205 205 203 205 207 209 211 215 217 219 219 219 222 223 223 224 225 224 227 230 233 239 246 252 255 257 259 262 264 263 264 268 270 272 277 282 285 287 289 291 294 296 298 299 301 302 302 303 305 307
193 195 197 199 200 201 204 206 209 211 215 215 216 216 217 219 220 217 220 223 228 232 233 235 240 246 250 255 256 258 261 263 263 264 268 271 273 279 280 283 287 290 291 293 295 297 298 299 301 301 302 304 306 307
194 194 195 198 202 203 203 203 202 206 208 209 209 209 211 212 213 218 223 227 230 231 237 244 249 251 253 255 258 260 261 262 265 270 272 274 279 280 283 287 290 291 292 295 297 298 299 300 302 303 306 307 307 308
193 192 191 197 199 202 202 201 200 200 201 199 202 205 208 211 217 222 228 231 235 241 244 246 250 251 254 257 260 260 261 265 270 272 276 279 282 284 287 288 290 292 295 296 297 298 300 302 304 306 308 309 309 308
192 191 193 197 200 200 201 204 201 199 195 199 205 209 215 222 224 229 234 236 237 241 247 247 248 252 258 260 260 262 265 270 273 278 281 285 286 287 289 291 293 295 296 297 298 301 303 305 308 310 310 310 308 307
192 193 196 199 201 200 200 199 198 196 197 204 208 213 220 224 228 233 236 239 244 245 248 251 255 257 258 259 262 267 271 274 279 283 284 285 287 290 292 293 294 295 296 300 303 306 308 309 310 310 310 309 307 306
196 197 200 201 202 200 198 199 200 202 204 209 214 218 224 230 234 238 243 246 248 251 254 256 258 259 261 263 267 270 275 278 282 283 286 289 290 292 292 294 296 299 303 304 306 308 309 309 310 311 311 308 305 305
201 205 206 207 206 205 204 204 207 210 212 216 219 225 230 234 239 242 246 248 250 253 256 258 261 263 266 268 272 277 279 281 285 288 290 291 292 293 295 297 299 301 304 306 308 309 310 311 311 309 308 307 306 305
197 201 204 204 203 203 207 209 212 215 218 222 226 230 234 237 240 243 248 252 255 258 260 261 263 267 270 274 278 280 283 285 287 288 290 292 294 296 298 301 304 306 308 309 310 311 312 310 308 308 308 308 306 306
198 200 201 204 206 208 211 214 215 219 222 226 229 232 236 240 243 247 251 254 256 258 260 264 269 273 276 278 280 282 285 287 289 292 295 297 298 300 303 304 305 306 309 311 311 311 308 307 308 307 307 307 308 308
195 198 200 203 204 206 210 213 218 222 223 225 230 234 239 243 247 250 252 255 258 262 266 269 272 275 276 279 282 285 287 291 294 295 296 299 300 301 302 305 307 310 312 311 311 309 308 308 308 306 307 306 305 306
198 198 200 200 202 207 211 215 217 221 226 230 234 238 241 244 247 251 255 258 261 265 269 273 276 278 281 285 287 288 290 294 296 298 299 300 303 305 308 310 312 313 313 314 313 311 309 309 308 306 304 304 305 304
197 199 200 205 208 212 214 218 221 225 228 232 237 241 244 247 252 256 262 265 268 271 273 276 278 281 283 285 289 293 296 298 299 301 303 305 307 310 312 312 311 312 314 313 310 309 309 307 305 303 301 300 299 301
202 205 209 212 213 217 220 224 228 232 234 238 242 246 250 254 258 262 264 267 270 274 277 280 282 285 289 293 296 298 299 300 301 304 307 309 312 313 311 313 314 315 312 310 307 308 307 306 306 302 298 295 294 295
208 209 212 216 221 225 228 230 234 237 241 244 248 252 256 260 263 265 268 271 273 277 280 283 286 290 294 296 298 300 305 305 305 309 312 311 312 311 311 314 317 314 310 310 310 308 306 306 303 299 297 294 292 290
215 217 221 224 226 229 232 234 237 240 244 248 253 256 258 264 266 269 271 275 279 281 285 289 293 297 298 299 303 307 310 309 310 311 311 309 310 310 312 314 316 317 311 311 311 311 307 303 294 290 297 296 290 284
221 224 225 230 231 233 236 240 245 248 252 255 257 260 263 267 270 273 276 278 282 287 291 295 297 300 304 308 310 310 309 309 308 309 309 308 308 310 313 313 316 317 313 315 316 313 307 298 290 291 296 295 287 282
220 223 226 229 231 234 239 242 246 250 254 256 258 259 264 267 272 276 279 283 287 289 293 298 301 303 307 307 306 306 307 308 310 311 310 310 310 310 309 312 316 317 316 317 318 316 309 297 291 292 295 294 287 282
219 222 226 230 234 238 242 245 247 250 252 254 259 262 268 272 275 279 283 285 290 295 298 301 304 306 305 306 306 306 306 306 306 306 307 308 306 303 304 309 315 318 319 319 318 317 310 300 295 294 295 290 287 284
222 226 230 235 237 241 243 245 247 250 254 257 261 265 269 273 278 282 287 292 294 299 302 303 303 304 304 303 304 306 306 306 305 305 307 307 301 298 302 309 316 319 318 316 316 316 311 300 294 294 291 288 286 284
227 230 234 236 238 240 243 247 251 255 260 263 266 270 274 278 281 286 292 296 301 302 303 302 302 302 301 305 306 306 306 306 306 305 306 302 297 298 304 310 316 317 316 314 314 315 312 306 299 293 287 283 283 285
229 231 234 238 241 246 249 254 258 261 266 271 275 278 282 286 291 297 300 303 302 300 300 301 301 301 303 305 306 307 307 307 308 307 304 301 299 303 307 311 316 315 315 313 312 312 312 307 299 292 287 285 285 288
231 235 240 245 248 252 256 262 270 276 281 286 290 292 294 296 297 301 299 296 298 300 299 300 301 304 306 310 312 313 312 312 311 308 304 301 302 304 307 312 314 313 313 312 310 309 308 306 302 296 292 289 290 290
236 243 252 263 270 273 277 280 283 287 291 293 293 294 295 298 299 298 297 296 294 295 299 303 305 308 311 314 315 315 312 308 305 302 300 300 302 304 308 311 310 309 309 309 309 306 305 304 301 296 293 290 288 287
Height
5523 5534 5545 5554 5564 5574 5583 5593 5602 5611 5620 5628 5636 5645 5653 5661 5669 5678 5684 5690 5695 5700 5703 5708 5711 5715 5717 5721 5723 5727 5728 5729 5731 5732 5732 5733 5732 5731 5728 5726 5726 5725 5723 5722 5720 5718 5715 5715 5711 5710 5704 5701 5697 5693
5521 5531 5542 5552 5563 5572 5581 5590 5599 5608 5617 5625 5632 5640 5648 5656 5664 5672 5678 5683 5687 5692 5696 5699 5702 5706 5709 5713 5717 5717 5721 5722 5723 5723 5724 5724 5723 5722 5720 5719 5717 5716 5717 5714 5713 5711 5706 5705 5702 5698 5694 5692 5688 5684
5519 5529 5539 5550 5560 5569 5579 5588 5596 5604 5613 5621 5629 5637 5644 5652 5659 5666 5670 5675 5679 5683 5688 5692 5696 5698 5701 5704 5707 5711 5711 5713 5714 5715 5715 5715 5714 5714 5712 5711 5710 5708 5707 5705 5702 5703 5698 5697 5692 5689 5686 5683 5679 5674
5516 5527 5537 5547 5556 5566 5575 5585 5593 5601 5609 5617 5625 5632 5640 5646 5652 5658 5664 5668 5672 5677 5681 5684 5687 5690 5693 5696 5700 5701 5704 5705 5706 5707 5706 5705 5705 5706 5704 5703 5703 5698 5699 5696 5694 5692 5691 5687 5684 5680 5676 5672 5668 5663
5516 5526 5535 5544 5553 5563 5572 5581 5590 5598 5606 5614 5621 5628 5634 5641 5647 5651 5657 5662 5665 5671 5673 5676 5679 5682 5686 5689 5691 5693 5695 5696 5697 5698 5697 5696 5697 5696 5696 5695 5694 5692 5689 5687 5684 5681 5680 5676 5673 5669 5665 5660 5656 5651
5516 5525 5534 5542 5551 5561 5569 5578 5586 5594 5602 5610 5616 5623 5629 5635 5641 5646 5651 5655 5658 5662 5666 5669 5673 5676 5679 5681 5684 5686 5687 5688 5689 5688 5687 5688 5688 5687 5688 5687 5684 5683 5680 5677 5675 5672 5669 5665 5661 5657 5653 5648 5643 5636
5517 5526 5533 5541 5549 5557 5566 5575 5583 5591 5599 5605 5612 5618 5624 5629 5635 5640 5646 5649 5651 5655 5659 5662 5664 5668 5671 5674 5677 5678 5679 5680 5680 5680 5680 5680 5679 5679 5679 5677 5673 5674 5671 5669 5666 5664 5659 5654 5650 5646 5641 5635 5628 5621
5518 5525 5533 5542 5549 5556 5563 5570 5578 5586 5593 5600 5605 5612 5617 5623 5628 5633 5636 5640 5644 5648 5652 5655 5659 5664 5665 5667 5668 5670 5670 5671 5671 5671 5671 5670 5672 5670 5670 5666 5665 5663 5660 5657 5655 5651 5647 5643 5637 5632 5627 5621 5613 5606
5517 5525 5532 5540 5547 5553 5560 5568 5575 5582 5589 5594 5600 5606 5611 5616 5621 5626 5630 5634 5638 5644 5645 5650 5653 5657 5657 5659 5660 5661 5661 5662 5662 5663 5663 5662 5662 5661 5659 5656 5655 5652 5649 5646 5642 5637 5633 5628 5623 5617 5610 5603 5596 5587
5516 5523 5529 5537 5544 5551 5557 5564 5572 5578 5583 5590 5595 5601 5606 5610 5615 5621 5624 5628 5633 5635 5638 5642 5645 5648 5651 5651 5652 5654 5654 5654 5654 5655 5653 5654 5652 5651 5649 5646 5644 5641 5638 5634 5629 5624 5618 5613 5607 5601 5592 5585 5577 5570
5512 5520 5527 5535 5543 5548 5554 5561 5567 5573 5579 5585 5590 5597 5601 5605 5610 5614 5618 5622 5625 5628 5632 5636 5639 5641 5642 5644 5645 5645 5644 5644 5644 5647 5645 5644 5642 5642 5638 5635 5632 5629 5626 5621 5615 5610 5604 5598 5591 5584 5576 5568 5560 5553
5512 5518 5525 5533 5539 5545 5551 5557 5564 5571 5577 5582 5588 5592 5595 5600 5606 5609 5612 5615 5619 5623 5627 5631 5633 5634 5635 5636 5636 5636 5636 5635 5635 5637 5635 5634 5634 5630 5627 5624 5620 5616 5612 5607 5602 5596 5589 5581 5573 5565 5557 5551 5544 5536
5509 5515 5521 5530 5537 5543 5549 5554 5560 5565 5571 5575 5580 5586 5591 5596 5599 5602 5606 5611 5615 5619 5621 5623 5625 5626 5626 5628 5628 5627 5627 5627 5627 5625 5624 5623 5621 5618 5615 5611 5607 5602 5598 5593 5586 5579 5571 5563 5556 5547 5540 5531 5521 5513
5508 5514 5520 5528 5535 5540 5545 5551 5557 5563 5568 5573 5577 5582 5585 5588 5593 5599 5604 5607 5610 5611 5613 5616 5616 5618 5618 5619 5619 5619 5618 5618 5616 5617 5615 5613 5609 5605 5601 5598 5594 5588 5582 5576 5569 5561 5553 5545 5537 5529 5518 5507 5496 5489
5506 5512 5519 5526 5532 5537 5542 5549 5554 5559 5564 5570 5574 5577 5581 5586 5591 5595 5598 5600 5602 5604 5606 5608 5609 5611 5610 5609 5609 5609 5609 5607 5607 5606 5603 5599 5596 5593 5589 5584 5579 5572 5566 5559 5550 5542 5533 5526 5519 5511 5502 5487 5474 5465
5504 5510 5517 5522 5528 5533 5538 5543 5549 5555 5559 5564 5569 5574 5578 5582 5585 5588 5590 5593 5595 5597 5599 5601 5601 5601 5601 5601 5602 5600 5600 5598 5596 5593 5589 5586 5582 5578 5574 5568 5562 5555 5547 5540 5532 5525 5517 5507 5497 5489 5482 5471 5459 5449
5502 5508 5513 5519 5525 5531 5536 5541 5546 5550 5556 5559 5564 5568 5572 5575 5578 5581 5584 5586 5588 5590 5591 5592 5593 5592 5592 5592 5591 5591 5589 5586 5582 5580 5576 5572 5568 5563 5558 5552 5545 5538 5531 5524 5516 5507 5497 5486 5475 5466 5458 5452 5442 5434
5500 5506 5511 5517 5523 5528 5533 5537 5542 5547 5552 5555 5559 5563 5566 5569 5572 5575 5577 5579 5580 5581 5583 5583 5583 5583 5583 5581 5580 5578 5576 5573 5570 5566 5562 5558 5553 5548 5541 5534 5527 5520 5513 5506 5497 5485 5475 5465 5455 5446 5438 5432 5426 5419
5498 5503 5508 5512 5518 5524 5530 5534 5538 5543 5547 5551 5554 5557 5560 5563 5565 5567 5569 5571 5572 5573 5573 5573 5573 5573 5572 5570 5568 5566 5563 5560 5556 5551 5547 5542 5536 5531 5525 5518 5512 5505 5498 5487 5476 5466 5455 5446 5437 5429 5422 5416 5411 5405
5494 5499 5505 5511 5517 5521 5526 5531 5535 5539 5542 5546 5548 5551 5554 5556 5558 5560 5561 5562 5563 5564 5564 5564 5563 5562 5560 5558 5555 5552 5549 5545 5542 5538 5533 5528 5522 5516 5509 5502 5495 5487 5478 5467 5457 5446 5436 5428 5423 5414 5408 5402 5396 5392
5492 5497 5503 5508 5513 5518 5522 5526 5530 5533 5536 5540 5542 5545 5547 5548 5550 5552 5553 5554 5554 5554 5553 5553 5551 5550 5547 5544 5541 5538 5536 5533 5528 5522 5516 5511 5506 5498 5491 5483 5470 5462 5453 5446 5437 5431 5421 5412 5407 5401 5395 5390 5385 5381
5490 5495 5499 5503 5508 5512 5516 5520 5524 5527 5531 5533 5535 5538 5539 5541 5542 5543 5544 5544 5543 5543 5543 5541 5540 5537 5534 5531 5529 5526 5523 5519 5514 5509 5501 5494 5487 5480 5472 5462 5451 5443 5437 5429 5418 5412 5406 5399 5393 5387 5383 5379 5375 5371
5485 5490 5494 5498 5503 5506 5511 5514 5518 5520 5524 5526 5527 5529 5531 5532 5533 5533 5534 5533 5533 5532 5531 5530 5528 5525 5522 5519 5516 5512 5509 5505 5500 5494 5483 5473 5469 5460 5450 5444 5434 5423 5416 5413 5404 5396 5390 5386 5381 5375 5371 5367 5364 5361
5481 5486 5489 5493 5497 5501 5505 5508 5511 5514 5515 5518 5520 5521 5522 5523 5523 5523 5523 5522 5522 5521 5520 5518 5515 5513 5511 5507 5503 5498 5494 5488 5482 5477 5465 5450 5447 5443 5434 5427 5418 5410 5400 5394 5390 5383 5376 5372 5367 5363 5359 5356 5354 5351
5478 5480 5485 5487 5490 5495 5497 5500 5503 5506 5508 5510 5512 5513 5513 5513 5514 5515 5513 5511 5510 5508 5506 5505 5503 5501 5496 5492 5488 5482 5474 5466 5461 5457 5452 5436 5428 5422 5418 5411 5404 5397 5387 5383 5378 5370 5364 5359 5356 5352 5349 5346 5345 5343
5471 5475 5479 5482 5485 5488 5491 5494 5497 5499 5500 5502 5504 5504 5505 5505 5505 5504 5502 5501 5499 5498 5496 5494 5490 5486 5481 5475 5470 5465 5459 5451 5443 5438 5434 5422 5414 5406 5401 5395 5390 5388 5379 5372 5366 5359 5353 5349 5346 5343 5341 5338 5337 5336
5465 5470 5474 5477 5480 5483 5485 5487 5490 5492 5494 5495 5495 5496 5496 5496 5496 5494 5491 5491 5490 5488 5485 5482 5479 5474 5469 5463 5456 5450 5444 5437 5428 5421 5414 5408 5400 5392 5386 5382 5379 5374 5368 5362 5356 5349 5344 5340 5338 5335 5333 5331 5330 5329
5461 5464 5468 5472 5474 5477 5479 5481 5483 5484 5485 5486 5487 5487 5488 5488 5487 5484 5482 5479 5478 5475 5471 5467 5461 5455 5450 5445 5438 5432 5426 5420 5415 5408 5402 5395 5387 5382 5378 5374 5370 5364 5358 5353 5348 5342 5337 5333 5330 5328 5326 5324 5323 5322
5456 5459 5463 5465 5468 5470 5471 5474 5475 5476 5477 5478 5479 5479 5480 5478 5476 5473 5472 5469 5465 5462 5458 5452 5446 5438 5432 5426 5420 5415 5408 5402 5397 5392 5386 5383 5379 5374 5370 5365 5361 5355 5350 5345 5340 5335 5331 5327 5324 5322 5320 5319 5318 5317
5451 5454 5456 5458 5461 5463 5465 5467 5468 5469 5469 5469 5469 5469 5470 5468 5466 5462 5461 5457 5453 5446 5440 5434 5429 5422 5417 5411 5405 5399 5393 5387 5382 5378 5374 5372 5369 5366 5362 5358 5353 5347 5342 5337 5333 5329 5325 5321 5318 5316 5315 5314 5313 5312
5444 5446 5449 5451 5454 5456 5458 5459 5460 5460 5460 5459 5457 5457 5456 5455 5454 5450 5444 5440 5435 5430 5425 5420 5415 5410 5404 5397 5391 5385 5380 5376 5372 5368 5364 5362 5359 5356 5353 5349 5344 5339 5334 5330 5326 5322 5319 5316 5314 5312 5310 5309 5308 5307
5439 5442 5444 5445 5447 5448 5449 5450 5450 5450 5449 5447 5444 5442 5439 5438 5436 5436 5430 5425 5420 5415 5410 5406 5401 5396 5391 5385 5380 5376 5371 5367 5363 5360 5357 5354 5350 5347 5343 5339 5335 5331 5327 5323 5320 5316 5313 5311 5309 5307 5306 5305 5304 5303
5434 5436 5437 5439 5439 5439 5439 5441 5440 5440 5439 5435 5430 5426 5423 5422 5421 5419 5415 5410 5406 5401 5397 5393 5389 5385 5381 5377 5373 5368 5364 5359 5355 5351 5347 5344 5341 5338 5334 5330 5327 5323 5320 5316 5313 5310 5308 5306 5304 5303 5301 5300 5299 5299